OAI883 RPLC-RKSI

Flight info

Callsign OAI883
Flight time N/A
Altitude 37000
Route RIANO5N RIANO TR25 CAB N884 ALBAX/N0472F390 Y531 YURIX Y27 RUSAR Y579 RUGMA/N0469F400 Z85 BILUM/N0471F390 DCT MELES/N0470F400 DCT OLMEN OLMEN2E
Aircraft B763/H-SDE3FGHIM3RWXY/LB1

Departure

Time 2026-04-22 11:03
Airport Clark International Airport / Clark Air Base (RPLC)

Arrival

Time N/A
Airport Incheon International Airport (RKSI)
Time Latitude Longitude Altitude Speed Heading
2026-04-22 10:49 15.19410 120.56059 493 ft 0 kts 157°
2026-04-22 10:50 15.19418 120.56057 493 ft 2 kts 169°
2026-04-22 10:50 15.19433 120.56056 493 ft 2 kts 191°
2026-04-22 10:50 15.19439 120.56058 493 ft 1 kts 201°
2026-04-22 10:51 15.19443 120.56059 493 ft 0 kts 201°
2026-04-22 10:52 15.19426 120.56052 493 ft 6 kts 201°
2026-04-22 10:53 15.19308 120.56006 493 ft 20 kts 200°
2026-04-22 10:53 15.19147 120.55973 493 ft 24 kts 144°
2026-04-22 10:53 15.19097 120.56122 493 ft 9 kts 84°
2026-04-22 10:53 15.19122 120.56144 493 ft 10 kts 29°
2026-04-22 10:54 15.19224 120.56198 493 ft 21 kts 20°
2026-04-22 10:54 15.19402 120.56255 493 ft 30 kts 20°
2026-04-22 10:54 15.19443 120.56272 493 ft 5 kts 23°
2026-04-22 10:54 15.19527 120.56311 493 ft 20 kts 24°
2026-04-22 10:55 15.19761 120.56407 493 ft 31 kts 21°
2026-04-22 10:55 15.19908 120.56462 493 ft 23 kts 20°
2026-04-22 10:55 15.20075 120.56526 493 ft 25 kts 22°
2026-04-22 10:55 15.20131 120.56577 493 ft 0 kts 70°
2026-04-22 10:57 15.20140 120.56611 493 ft 8 kts 79°
2026-04-22 10:57 15.20142 120.56622 493 ft 0 kts 79°
2026-04-22 10:59 15.20144 120.56633 493 ft 7 kts 80°
2026-04-22 10:59 15.20156 120.56724 493 ft 0 kts 84°
2026-04-22 11:00 15.20156 120.56727 493 ft 0 kts 84°
2026-04-22 11:02 15.20157 120.56744 493 ft 7 kts 88°
2026-04-22 11:02 15.20106 120.56827 493 ft 20 kts 160°
2026-04-22 11:02 15.20037 120.56818 493 ft 3 kts 198°
2026-04-22 11:03 15.19853 120.56746 493 ft 64 kts 201°
2026-04-22 11:03 15.19157 120.56463 495 ft 147 kts 199°
2026-04-22 11:03 15.18032 120.56044 1016 ft 181 kts 196°
2026-04-22 11:03 15.16952 120.55666 2265 ft 161 kts 202°
2026-04-22 11:04 15.15838 120.55191 2594 ft 187 kts 202°
2026-04-22 11:04 15.14533 120.54661 2983 ft 212 kts 201°
2026-04-22 11:04 15.13044 120.54074 3371 ft 237 kts 199°
2026-04-22 11:04 15.11367 120.53867 4024 ft 250 kts 169°
2026-04-22 11:05 15.09771 120.54614 4801 ft 259 kts 136°
2026-04-22 11:05 15.08796 120.56131 5867 ft 254 kts 104°
2026-04-22 11:05 15.08694 120.57970 6624 ft 262 kts 74°
2026-04-22 11:05 15.09556 120.59575 7723 ft 255 kts 44°
2026-04-22 11:06 15.10997 120.60630 8635 ft 260 kts 31°
2026-04-22 11:06 15.12559 120.61567 9594 ft 261 kts 33°
2026-04-22 11:06 15.14119 120.62556 10482 ft 266 kts 33°
2026-04-22 11:06 15.15727 120.63586 11327 ft 270 kts 33°
2026-04-22 11:07 15.17318 120.64613 12131 ft 275 kts 33°
2026-04-22 11:07 15.18975 120.65687 12944 ft 279 kts 33°
2026-04-22 11:07 15.20657 120.66781 13692 ft 285 kts 32°
2026-04-22 11:07 15.22338 120.67875 14445 ft 289 kts 32°
2026-04-22 11:08 15.24018 120.69115 14839 ft 307 kts 44°
2026-04-22 11:08 15.25553 120.70837 14905 ft 339 kts 48°
2026-04-22 11:08 15.27201 120.72717 15068 ft 366 kts 47°
2026-04-22 11:08 15.28919 120.74682 15919 ft 371 kts 47°
2026-04-22 11:09 15.30663 120.76676 16668 ft 378 kts 47°
2026-04-22 11:09 15.32449 120.78722 17460 ft 383 kts 47°
2026-04-22 11:09 15.34237 120.80773 18129 ft 390 kts 47°
2026-04-22 11:09 15.35901 120.83041 18789 ft 397 kts 56°
2026-04-22 11:10 15.37426 120.85446 19447 ft 402 kts 55°
2026-04-22 11:10 15.38984 120.87878 20064 ft 408 kts 56°
2026-04-22 11:10 15.40587 120.90390 20670 ft 414 kts 56°
2026-04-22 11:10 15.42181 120.92895 21248 ft 420 kts 56°
2026-04-22 11:11 15.43806 120.95448 21797 ft 425 kts 56°
2026-04-22 11:11 15.45442 120.98019 22355 ft 430 kts 55°
2026-04-22 11:11 15.47296 121.00476 23025 ft 431 kts 45°
2026-04-22 11:11 15.49539 121.02557 23603 ft 433 kts 35°
2026-04-22 11:12 15.52114 121.04201 24287 ft 433 kts 26°
2026-04-22 11:12 15.54810 121.05598 24836 ft 437 kts 25°
2026-04-22 11:12 15.57579 121.07010 25445 ft 440 kts 25°
2026-04-22 11:12 15.60354 121.08406 26027 ft 443 kts 25°
2026-04-22 11:13 15.63138 121.09796 26598 ft 446 kts 25°
2026-04-22 11:13 15.65949 121.11197 27170 ft 449 kts 25°
2026-04-22 11:13 15.68788 121.12608 27679 ft 452 kts 25°
2026-04-22 11:13 15.71672 121.14042 28218 ft 455 kts 25°
2026-04-22 11:14 15.74570 121.15482 28732 ft 458 kts 25°
2026-04-22 11:14 15.77460 121.16918 29228 ft 461 kts 25°
2026-04-22 11:14 15.80402 121.18381 29752 ft 463 kts 25°
2026-04-22 11:14 15.83370 121.19856 30244 ft 466 kts 25°
2026-04-22 11:15 15.86322 121.21325 30738 ft 469 kts 25°
2026-04-22 11:15 15.89263 121.22788 31425 ft 466 kts 25°
2026-04-22 11:15 15.92245 121.24273 32139 ft 463 kts 24°
2026-04-22 11:15 15.95116 121.25702 32780 ft 460 kts 24°
2026-04-22 11:16 15.98004 121.27141 33436 ft 458 kts 24°
2026-04-22 11:16 16.00926 121.28597 34009 ft 457 kts 24°
2026-04-22 11:16 16.03793 121.30025 34605 ft 456 kts 24°
2026-04-22 11:16 16.06652 121.31450 35175 ft 455 kts 24°
2026-04-22 11:17 16.09562 121.32902 35724 ft 454 kts 24°
2026-04-22 11:17 16.12396 121.34315 36243 ft 453 kts 24°
2026-04-22 11:17 16.15282 121.35754 36673 ft 453 kts 24°
2026-04-22 11:17 16.18082 121.37152 37058 ft 453 kts 24°
2026-04-22 11:18 16.20875 121.38547 37059 ft 450 kts 24°
2026-04-22 11:18 16.26528 121.41371 37084 ft 447 kts 24°
2026-04-22 11:19 16.32150 121.44181 37057 ft 449 kts 24°
2026-04-22 11:19 16.37827 121.47020 37020 ft 447 kts 24°
2026-04-22 11:20 16.43448 121.49834 36987 ft 447 kts 24°
2026-04-22 11:20 16.49131 121.52679 36967 ft 449 kts 24°
2026-04-22 11:21 16.54757 121.55500 36943 ft 446 kts 24°
2026-04-22 11:21 16.60391 121.58324 36928 ft 447 kts 24°
2026-04-22 11:22 16.66032 121.61155 36929 ft 448 kts 24°
2026-04-22 11:22 16.71665 121.63984 36934 ft 446 kts 24°
2026-04-22 11:23 16.77177 121.66753 36920 ft 444 kts 24°
2026-04-22 11:23 16.82791 121.69576 36922 ft 446 kts 24°
2026-04-22 11:24 16.88418 121.72407 36901 ft 446 kts 24°
2026-04-22 11:24 16.94054 121.75262 36900 ft 447 kts 25°
2026-04-22 11:25 16.99640 121.78230 36909 ft 449 kts 25°
2026-04-22 11:25 17.05294 121.81232 36917 ft 457 kts 25°
2026-04-22 11:26 17.11079 121.84306 36926 ft 464 kts 25°
2026-04-22 11:26 17.16896 121.87399 36895 ft 464 kts 25°
2026-04-22 11:27 17.22649 121.90461 36906 ft 462 kts 25°
2026-04-22 11:27 17.28363 121.93504 36934 ft 463 kts 25°
2026-04-22 11:28 17.34178 121.96602 36961 ft 463 kts 25°
2026-04-22 11:28 17.39968 121.99689 36979 ft 463 kts 25°
2026-04-22 11:29 17.45754 122.02776 36997 ft 464 kts 25°
2026-04-22 11:29 17.51521 122.05856 36994 ft 463 kts 25°
2026-04-22 11:30 17.57257 122.08921 36968 ft 463 kts 25°
2026-04-22 11:30 17.63004 122.11995 36946 ft 463 kts 25°
2026-04-22 11:31 17.68740 122.15064 36929 ft 462 kts 25°
2026-04-22 11:31 17.74459 122.18127 36914 ft 463 kts 25°
2026-04-22 11:32 17.80238 122.21223 36908 ft 464 kts 25°
2026-04-22 11:32 17.96378 122.29652 36944 ft 463 kts 24°
2026-04-22 11:33 18.49509 122.57379 36881 ft 465 kts 24°
2026-04-22 11:33 18.55312 122.60424 36894 ft 463 kts 24°
2026-04-22 11:34 18.79442 122.73090 36989 ft 462 kts 24°
2026-04-22 11:34 19.31393 123.00493 36897 ft 464 kts 24°
2026-04-22 11:35 19.37211 123.03572 36900 ft 464 kts 24°
2026-04-22 11:35 19.43024 123.06653 36900 ft 463 kts 24°
2026-04-22 11:36 19.86528 123.29793 36889 ft 465 kts 23°
2026-04-22 11:36 19.92381 123.32912 36887 ft 465 kts 23°
2026-04-22 11:37 19.98192 123.36015 36891 ft 466 kts 23°
2026-04-22 11:37 20.04004 123.39121 36890 ft 466 kts 23°
2026-04-22 11:38 20.09821 123.42234 36894 ft 465 kts 23°
2026-04-22 11:38 20.18558 123.46912 36892 ft 465 kts 23°
2026-04-22 11:39 20.24323 123.50003 36893 ft 465 kts 23°
2026-04-22 11:39 20.30150 123.53129 36890 ft 466 kts 23°
2026-04-22 11:40 20.35997 123.56269 36893 ft 466 kts 23°
2026-04-22 11:40 20.41853 123.59416 36884 ft 466 kts 23°
2026-04-22 11:41 20.47662 123.62542 36890 ft 466 kts 23°
2026-04-22 11:41 20.53498 123.65685 36888 ft 464 kts 23°
2026-04-22 11:42 20.59301 123.68810 36880 ft 465 kts 23°
2026-04-22 11:42 20.65128 123.71953 36879 ft 467 kts 23°
2026-04-22 11:43 20.70970 123.75107 36880 ft 466 kts 23°
2026-04-22 11:43 20.76772 123.78241 36880 ft 466 kts 23°
2026-04-22 11:44 20.82581 123.81382 36886 ft 466 kts 23°
2026-04-22 11:44 20.88438 123.84552 36877 ft 465 kts 23°
2026-04-22 11:45 20.94262 123.87706 36876 ft 466 kts 23°
2026-04-22 11:45 21.00026 123.90832 36877 ft 466 kts 22°
2026-04-22 11:46 21.05853 123.93982 36879 ft 467 kts 22°
2026-04-22 11:46 21.11676 123.97133 36881 ft 467 kts 23°
2026-04-22 11:47 21.17480 124.00278 36883 ft 466 kts 22°
2026-04-22 11:47 21.23325 124.03446 36893 ft 467 kts 22°
2026-04-22 11:48 21.29128 124.06594 36896 ft 467 kts 23°
2026-04-22 11:48 21.34972 124.09769 36902 ft 467 kts 22°
2026-04-22 11:49 21.40825 124.12950 36893 ft 467 kts 22°
2026-04-22 11:49 21.46621 124.16103 36886 ft 467 kts 23°
2026-04-22 11:50 21.52469 124.19289 36890 ft 468 kts 22°
2026-04-22 11:50 21.58271 124.22451 36891 ft 468 kts 22°
2026-04-22 11:51 21.64134 124.25648 36893 ft 468 kts 22°
2026-04-22 11:51 21.69985 124.28844 36893 ft 469 kts 22°
2026-04-22 11:52 21.75845 124.32046 36895 ft 470 kts 22°
2026-04-22 11:52 21.81762 124.35284 36889 ft 469 kts 22°
2026-04-22 11:53 21.87592 124.38477 36906 ft 470 kts 22°
2026-04-22 11:53 21.93449 124.41686 36899 ft 469 kts 22°
2026-04-22 11:54 21.99314 124.44904 36905 ft 468 kts 22°
2026-04-22 11:54 22.05200 124.48135 36901 ft 471 kts 22°
2026-04-22 11:55 22.11089 124.51372 36897 ft 470 kts 22°
2026-04-22 11:55 22.16953 124.54599 36907 ft 469 kts 22°
2026-04-22 11:56 22.22798 124.57817 36898 ft 470 kts 22°
2026-04-22 11:56 22.28629 124.61031 36891 ft 470 kts 22°
2026-04-22 11:57 22.34484 124.64262 36878 ft 470 kts 22°
2026-04-22 11:57 22.40393 124.67525 36881 ft 471 kts 22°
2026-04-22 11:58 22.46179 124.70722 36880 ft 471 kts 22°
2026-04-22 11:58 22.52078 124.73987 36879 ft 469 kts 22°
2026-04-22 11:59 22.57936 124.77231 36881 ft 471 kts 22°
2026-04-22 11:59 22.63799 124.80480 36904 ft 473 kts 22°
2026-04-22 12:00 22.69683 124.83746 36904 ft 472 kts 22°
2026-04-22 12:00 22.75589 124.87026 36903 ft 473 kts 22°
2026-04-22 12:01 22.81484 124.90304 36899 ft 472 kts 22°
2026-04-22 12:01 22.87319 124.93551 36905 ft 471 kts 22°
2026-04-22 12:02 22.93197 124.96824 36896 ft 473 kts 22°
2026-04-22 12:02 22.99024 125.00074 36910 ft 473 kts 22°
2026-04-22 12:03 23.04910 125.03360 36901 ft 471 kts 22°
2026-04-22 12:03 23.10701 125.06594 36902 ft 472 kts 22°
2026-04-22 12:04 23.16507 125.09842 36905 ft 472 kts 22°
2026-04-22 12:04 23.22356 125.13115 36902 ft 472 kts 22°
2026-04-22 12:05 23.28238 125.16411 36903 ft 473 kts 22°
2026-04-22 12:05 23.34091 125.19694 36909 ft 472 kts 22°
2026-04-22 12:06 23.39925 125.22970 36908 ft 472 kts 22°
2026-04-22 12:06 23.45770 125.26255 36911 ft 471 kts 22°
2026-04-22 12:07 23.51636 125.29555 36906 ft 470 kts 22°
2026-04-22 12:07 23.57506 125.32861 36893 ft 471 kts 22°
2026-04-22 12:08 23.60413 125.34499 36887 ft 471 kts 22°
2026-04-22 12:08 23.63371 125.36167 36890 ft 471 kts 22°
2026-04-22 12:09 23.75063 125.42768 36894 ft 471 kts 22°
2026-04-22 12:09 23.79908 125.45507 36893 ft 471 kts 22°
2026-04-22 12:10 23.86733 125.49370 36888 ft 473 kts 22°
2026-04-22 12:10 23.92588 125.52687 36894 ft 473 kts 22°
2026-04-22 12:11 23.98380 125.55973 36903 ft 473 kts 22°
2026-04-22 12:11 24.04230 125.59294 36893 ft 472 kts 22°
2026-04-22 12:12 24.10099 125.62631 36888 ft 473 kts 22°
2026-04-22 12:12 24.15926 125.65945 36894 ft 472 kts 22°
2026-04-22 12:13 24.21811 125.69298 36894 ft 473 kts 22°
2026-04-22 12:13 24.27671 125.72637 36889 ft 472 kts 22°
2026-04-22 12:14 24.33501 125.75966 36896 ft 472 kts 22°
2026-04-22 12:14 24.39368 125.79317 36901 ft 472 kts 22°
2026-04-22 12:15 24.45220 125.82664 36891 ft 471 kts 22°
2026-04-22 12:15 24.51089 125.86024 36888 ft 472 kts 21°
2026-04-22 12:16 24.56940 125.89378 36893 ft 471 kts 22°
2026-04-22 12:16 24.62789 125.92734 36894 ft 471 kts 21°
2026-04-22 12:17 24.68639 125.96094 36891 ft 470 kts 21°
2026-04-22 12:17 24.74481 125.99451 36881 ft 472 kts 22°
2026-04-22 12:18 24.80288 126.02795 36884 ft 471 kts 21°
2026-04-22 12:18 24.86000 126.06087 36882 ft 469 kts 21°
2026-04-22 12:19 24.91809 126.09436 36873 ft 470 kts 21°
2026-04-22 12:19 24.97587 126.12772 36876 ft 470 kts 21°
2026-04-22 12:20 25.03447 126.16160 36883 ft 472 kts 21°
2026-04-22 12:20 25.09301 126.19548 36873 ft 469 kts 21°
2026-04-22 12:21 25.14191 126.22380 36892 ft 471 kts 21°
2026-04-22 12:21 25.20386 126.25971 36890 ft 473 kts 21°
2026-04-22 12:22 25.26258 126.29382 36893 ft 470 kts 21°
2026-04-22 12:22 25.32075 126.32761 36889 ft 470 kts 21°
2026-04-22 12:23 25.37901 126.36150 36885 ft 471 kts 21°
2026-04-22 12:23 25.43759 126.39562 36887 ft 473 kts 22°
2026-04-22 12:24 25.49644 126.42994 36890 ft 474 kts 21°
2026-04-22 12:24 25.55496 126.46410 36886 ft 472 kts 21°
2026-04-22 12:25 25.61360 126.49836 36885 ft 475 kts 22°
2026-04-22 12:25 25.67262 126.53288 36877 ft 475 kts 21°
2026-04-22 12:26 25.73037 126.56672 36875 ft 473 kts 22°
2026-04-22 12:26 25.78908 126.60113 36883 ft 475 kts 22°
2026-04-22 12:27 25.84780 126.63560 36886 ft 475 kts 22°
2026-04-22 12:27 25.90608 126.66985 36884 ft 473 kts 22°
2026-04-22 12:28 25.96456 126.70425 36894 ft 477 kts 22°
2026-04-22 12:28 26.02310 126.73873 36874 ft 478 kts 22°
2026-04-22 12:29 26.08216 126.77357 36870 ft 476 kts 22°
2026-04-22 12:29 26.14123 126.80843 36885 ft 477 kts 22°
2026-04-22 12:30 26.22956 126.86064 36883 ft 477 kts 22°
2026-04-22 12:31 26.28766 126.89504 36876 ft 480 kts 22°
2026-04-22 12:31 26.34712 126.93027 36882 ft 479 kts 22°
2026-04-22 12:32 26.40614 126.96532 36888 ft 476 kts 22°
2026-04-22 12:32 26.49425 127.01767 36881 ft 479 kts 22°
2026-04-22 12:33 26.55340 127.05287 36882 ft 478 kts 22°
2026-04-22 12:33 26.61223 127.08792 36868 ft 477 kts 22°
2026-04-22 12:34 26.67121 127.12311 36889 ft 480 kts 22°
2026-04-22 12:34 26.69397 127.13670 36883 ft 480 kts 22°
2026-04-22 12:35 26.75321 127.17209 36867 ft 481 kts 22°
2026-04-22 12:35 26.81230 127.20745 36876 ft 481 kts 22°
2026-04-22 12:36 26.87177 127.24307 36884 ft 480 kts 22°
2026-04-22 12:36 26.93101 127.27859 36883 ft 481 kts 22°
2026-04-22 12:37 26.99026 127.31416 36875 ft 482 kts 22°
2026-04-22 12:37 27.04979 127.34995 36870 ft 483 kts 22°
2026-04-22 12:38 27.10903 127.38560 36873 ft 483 kts 22°
2026-04-22 12:38 27.16862 127.42151 36873 ft 483 kts 22°
2026-04-22 12:39 27.25763 127.47523 36907 ft 482 kts 22°
2026-04-22 12:40 27.31735 127.51132 36880 ft 483 kts 22°
2026-04-22 12:40 27.37662 127.54719 36888 ft 483 kts 22°
2026-04-22 12:41 27.42591 127.57703 36877 ft 484 kts 22°
2026-04-22 12:41 27.46651 127.60025 36874 ft 480 kts 15°
2026-04-22 12:42 27.55191 127.62000 36874 ft 462 kts 358°
2026-04-22 12:42 27.62697 127.62740 36873 ft 464 kts 358°
2026-04-22 12:43 27.69163 127.63346 36871 ft 464 kts 358°
2026-04-22 12:43 27.75584 127.63940 36885 ft 462 kts 358°
2026-04-22 12:44 27.82066 127.64536 36830 ft 463 kts 358°
2026-04-22 12:44 27.88473 127.65127 36848 ft 462 kts 358°
2026-04-22 12:45 27.94920 127.65721 36852 ft 458 kts 358°
2026-04-22 12:45 28.01360 127.66317 36860 ft 461 kts 357°
2026-04-22 12:46 28.07815 127.66911 36824 ft 465 kts 359°
2026-04-22 12:46 28.14197 127.67499 36867 ft 468 kts 359°
2026-04-22 12:47 28.20681 127.68102 36868 ft 463 kts 357°
2026-04-22 12:47 28.23887 127.68404 36823 ft 448 kts 358°
2026-04-22 12:47 28.26931 127.68688 36864 ft 431 kts 358°
2026-04-22 12:48 28.32955 127.69242 36834 ft 435 kts 357°
2026-04-22 12:48 28.39040 127.69804 36833 ft 441 kts 358°
2026-04-22 12:49 28.45261 127.70381 36807 ft 450 kts 358°
2026-04-22 12:49 28.51507 127.70966 36807 ft 452 kts 357°
2026-04-22 12:50 28.57890 127.71560 36852 ft 459 kts 358°
2026-04-22 12:50 28.64194 127.72154 36829 ft 436 kts 358°
2026-04-22 12:51 28.70209 127.72714 36850 ft 431 kts 358°
2026-04-22 12:51 28.76264 127.73275 36835 ft 438 kts 357°
2026-04-22 12:52 28.82434 127.73852 36836 ft 448 kts 358°
2026-04-22 12:52 28.88721 127.74443 36799 ft 453 kts 358°
2026-04-22 12:53 28.95030 127.75037 36833 ft 458 kts 356°
2026-04-22 12:53 29.01410 127.75636 36821 ft 460 kts 358°
2026-04-22 12:54 29.07826 127.76241 36843 ft 467 kts 358°
2026-04-22 12:54 29.14369 127.76859 36881 ft 467 kts 359°
2026-04-22 12:54 29.17622 127.77169 36760 ft 466 kts 357°
2026-04-22 12:55 29.20854 127.77475 36817 ft 456 kts 358°
2026-04-22 12:55 29.27215 127.78076 36768 ft 454 kts 358°
2026-04-22 12:55 29.30341 127.78374 36752 ft 442 kts 358°
2026-04-22 12:56 29.33414 127.78660 36833 ft 444 kts 357°
2026-04-22 12:56 29.39676 127.79248 36795 ft 451 kts 359°
2026-04-22 12:57 29.45993 127.79850 36788 ft 454 kts 358°
2026-04-22 12:57 29.49117 127.80151 36772 ft 442 kts 356°
2026-04-22 12:57 29.52184 127.80450 36830 ft 437 kts 357°
2026-04-22 12:58 29.58300 127.81039 36789 ft 437 kts 358°
2026-04-22 12:58 29.64478 127.81612 36790 ft 447 kts 358°